Flag for U.S.A. Weather past 2 weeks in Virginia Beach, Virginia, U.S.A.

Now
68 °F

Passing clouds.


Feels Like: 68 °F
Forecast: 60 / 72 °F
Wind: 13 mph from Northeast

Location: Virginia Beach - Oceana

Current Time: May 23, 2015 at 9:54:07 AM

Latest Report: May 23, 2015 at 8:56 AM


Visibility: 10 mi

Pressure: 30.42 "Hg

Humidity: 40%

Dew point: 43 °F

Location of Virginia BeachLocation

Historic Weather in Virginia Beach — Graph

°F

Virginia Beach temperature yesterday

Maximum temperature yesterday: 74 °F (at 3:56 PM)
Minimum temperature yesterday: 57 °F (at 5:56 AM)
Average temperature yesterday: 64 °F

Past Weeks' High & Low Weather Summary

 TemperatureHumidityPressure
High90 °F (May 12, 2:56 PM)97% (May 9, 9:03 AM)30.42 "Hg (May 9, 9:03 AM)
Low50 °F (May 15, 3:56 AM)27% (May 22, 2:56 PM)29.77 "Hg (May 21, 4:56 PM)
Average71 °F70%30.11 "Hg
* Reported May 8 7:56 AM — May 23 7:56 AM, Virginia Beach, Weather by CustomWeather, © 2015

Note: Actual official high and low records may vary slightly from our data, if they occured in-between our weather recording intervals... More about our weather records

Advertising

Virginia Beach weather history for previous 24 hours

 ConditionsComfort  
Time TempWeatherWind HumidityBarometerVisibility
7:56 AM
Sat, May 23
66 °FPassing clouds.14 mph47%30.39 "Hg10 mi
6:56 AM57 °FPassing clouds.No wind78%30.37 "Hg10 mi
5:56 AM53 °FPassing clouds.No wind77%30.34 "Hg10 mi
4:56 AM55 °FClear.5 mph74%30.30 "Hg10 mi
3:56 AM57 °FClear.7 mph69%30.27 "Hg10 mi
2:56 AM58 °FClear.6 mph67%30.25 "Hg10 mi
1:56 AM59 °FClear.7 mph64%30.25 "Hg10 mi
12:56 AM60 °FClear.6 mph65%30.25 "Hg10 mi
11:56 PM
Fri, May 22
58 °FPassing clouds.8 mph72%30.24 "Hg10 mi
10:56 PM60 °FPassing clouds.6 mph67%30.23 "Hg10 mi
9:56 PM64 °FClear.8 mph58%30.22 "Hg10 mi
8:56 PM64 °FPassing clouds.7 mph54%30.20 "Hg10 mi
7:56 PM67 °FSunny.8 mph45%30.18 "Hg10 mi
6:56 PM70 °FPassing clouds.8 mph39%30.16 "Hg10 mi
5:56 PM73 °FPassing clouds.7 mph34%30.15 "Hg10 mi
4:56 PM74 °FPassing clouds.8 mph33%30.15 "Hg10 mi
3:56 PM74 °FPassing clouds.7 mph33%30.15 "Hg10 mi
2:56 PM73 °FPassing clouds.7 mph27%30.15 "Hg10 mi
1:56 PM72 °FPassing clouds.8 mph31%30.14 "Hg10 mi
12:56 PM70 °FSunny.8 mph35%30.14 "Hg10 mi
11:56 AM68 °FSunny.15 mph47%30.14 "Hg10 mi
10:56 AM67 °FSunny.15 mph49%30.13 "Hg10 mi
9:56 AM65 °FSunny.14 mph56%30.11 "Hg10 mi
Weather by CustomWeather, © 2015

See weather overviewHow to use our weather pages